Jackson, WY

6:47 AM MDT on April 23, 2018 (GMT -0600)
Jackson Hole

Weather History for KJAC - August, 2014

Change the Weather History Date:

Tuesday, August 12, 2014

  Actual Average Record
Temperature  
Mean Temperature 62 °F -  
Max Temperature 80 °F 80 °F 91 °F (1992)
Min Temperature 44 °F 40 °F 30 °F (1980)
Degree Days  
Heating Degree Days 3    
Growing Degree Days 12 (Base 50)    
Moisture  
Dew Point 45 °F    
Average Humidity 69    
Maximum Humidity 88    
Minimum Humidity 24    
Precipitation  
Precipitation 0.00 in - - ()
Sea Level Pressure  
Sea Level Pressure 30.32 in    
Wind  
Wind Speed 4 mph (North)    
Max Wind Speed 13 mph    
Max Gust Speed -    
Visibility 10 miles    
Events Thunderstorm    
Averages and records for this station are not official NWS values.
T = Trace of Precipitation, MM = Missing Value Source: NWS Daily Summary

Daily Weather History Graph

Daily Weather History Graph

Search for Another Location

Airport or City:

Astronomy

Aug. 12, 2014 Rise Set
Actual Time 6:24 AM MDT 8:30 PM MDT
Civil Twilight 5:52 AM MDT 9:02 PM MDT
Nautical Twilight 5:14 AM MDT 9:40 PM MDT
Astronomical Twilight 4:31 AM MDT 10:22 PM MDT
Moon 9:33 PM MDT (8/12) 8:51 AM MDT (8/12)
Length of Visible Light 15h 09m
Length of Day
14h 06m
Waning Gibbous, 94% of the Moon is Illuminated
Aug 12
Waning Gibbous
Aug 17
Last Quarter
Aug 25
New
Sep 2
First Quarter
Sep 8
Full

Hourly Weather History & Observations

Time (MDT) Temp. Windchill Dew Point Humidity Pressure Visibility Wind Dir Wind Speed Gust Speed Precip Events Conditions
12:15 AM 57.2 °F - 44.6 °F 63% 30.35 in 10.0 mi North 4.6 mph - N/A   Clear
12:35 AM 53.6 °F - 44.6 °F 72% 30.36 in 10.0 mi Calm Calm - N/A   Clear
12:55 AM 53.6 °F - 44.6 °F 72% 30.36 in 10.0 mi NE 3.5 mph - N/A   Clear
1:15 AM 53.6 °F - 44.6 °F 72% 30.36 in 10.0 mi Calm Calm - N/A   Clear
1:35 AM 53.6 °F - 44.6 °F 72% 30.36 in 10.0 mi North 3.5 mph - N/A   Clear
1:55 AM 53.6 °F - 44.6 °F 72% 30.35 in 10.0 mi NNE 3.5 mph - N/A   Clear
2:15 AM 51.8 °F - 44.6 °F 76% 30.35 in 10.0 mi North 11.5 mph - N/A   Clear
2:35 AM 51.8 °F - 44.6 °F 76% 30.35 in 10.0 mi North 5.8 mph - N/A   Clear
2:55 AM 48.2 °F - 44.6 °F 87% 30.35 in 10.0 mi Calm Calm - N/A   Clear
3:15 AM 48.2 °F - 42.8 °F 82% 30.35 in 10.0 mi Calm Calm - N/A   Clear
3:35 AM 48.2 °F - 42.8 °F 82% 30.36 in 10.0 mi NNW 4.6 mph - N/A   Clear
3:55 AM 48.2 °F - 42.8 °F 82% 30.36 in 10.0 mi NNE 3.5 mph - N/A   Clear
4:15 AM 48.2 °F - 42.8 °F 82% 30.36 in 10.0 mi North 5.8 mph - N/A   Clear
4:35 AM 46.4 °F - 41.0 °F 81% 30.36 in 10.0 mi Calm Calm - N/A   Clear
4:55 AM 46.4 °F - 42.8 °F 87% 30.36 in 10.0 mi Calm Calm - N/A   Clear
5:15 AM 48.2 °F - 42.8 °F 82% 30.36 in 10.0 mi Calm Calm - N/A   Clear
5:35 AM 46.4 °F - 42.8 °F 87% 30.36 in 10.0 mi Calm Calm - N/A   Clear
5:55 AM 46.4 °F 44.3 °F 42.8 °F 87% 30.36 in 10.0 mi NW 4.6 mph - N/A   Clear
6:15 AM 44.6 °F 43.1 °F 41.0 °F 87% 30.37 in 10.0 mi North 3.5 mph - N/A   Clear
6:35 AM 44.6 °F 42.2 °F 41.0 °F 87% 30.37 in 10.0 mi North 4.6 mph - N/A   Clear
6:55 AM 44.6 °F - 41.0 °F 87% 30.37 in 10.0 mi Calm Calm - N/A   Clear
6:58 AM 44.6 °F - 41.0 °F 87% 30.37 in 10.0 mi Calm Calm - N/A   Clear
7:58 AM 53.6 °F - 44.6 °F 72% 30.38 in 10.0 mi Calm Calm - N/A   Clear
8:57 AM 59.0 °F - 44.6 °F 59% 30.37 in 10.0 mi Calm Calm - N/A   Clear
9:57 AM 62.6 °F - 44.6 °F 52% 30.36 in 10.0 mi South 4.6 mph - N/A   Scattered Clouds
11:51 AM 73.4 °F - 44.6 °F 36% 30.33 in 10.0 mi Variable 6.9 mph - N/A   Scattered Clouds
1:55 PM 80.6 °F - 41.0 °F 24% 30.27 in 10.0 mi Variable 6.9 mph - N/A   Scattered Clouds
3:51 PM 80.6 °F - 44.6 °F 28% 30.25 in 10.0 mi WSW 9.2 mph - N/A   Mostly Cloudy
4:53 PM 75.2 °F - 42.8 °F 31% 30.26 in 10.0 mi SE 11.5 mph - N/A   Scattered Clouds
5:51 PM 75.2 °F - 44.6 °F 34% 30.25 in 10.0 mi NNW 11.5 mph - N/A   Scattered Clouds
6:52 PM 73.4 °F - 46.4 °F 38% 30.24 in 10.0 mi North 11.5 mph - N/A   Partly Cloudy
7:03 PM 71.6 °F - 50.0 °F 46% 30.24 in 10.0 mi NNW 12.7 mph - N/A   Scattered Clouds
7:58 PM 69.8 °F - 48.2 °F 46% 30.25 in 10.0 mi North 11.5 mph - N/A   Partly Cloudy
8:55 PM 60.8 °F - 50.0 °F 68% 30.26 in 10.0 mi NW 6.9 mph - N/A   Clear
9:15 PM 62.6 °F - 48.2 °F 59% 30.27 in 10.0 mi North 4.6 mph - N/A   Clear
9:35 PM 60.8 °F - 50.0 °F 68% 30.27 in 10.0 mi Calm Calm - N/A   Clear
9:55 PM 60.8 °F - 50.0 °F 68% 30.27 in 10.0 mi Calm Calm - N/A   Clear
10:15 PM 60.8 °F - 50.0 °F 68% 30.27 in 10.0 mi Calm Calm - N/A   Clear
10:55 PM 59.0 °F - 51.8 °F 77% 30.27 in 10.0 mi East 6.9 mph - N/A   Clear
11:15 PM 59.0 °F - 51.8 °F 77% 30.28 in 10.0 mi ENE 3.5 mph - N/A   Scattered Clouds
11:35 PM 57.2 °F - 51.8 °F 82% 30.30 in 10.0 mi WSW 3.5 mph - N/A   Overcast
11:55 PM 57.2 °F - 53.6 °F 88% 30.32 in 7.0 mi Calm Calm - N/A Thunderstorm Overcast